This is the latest recevied weather packets stored in our database for station/object N3EG. If no packets are shown the sender has not sent any weather packets the latest 10 day(s).
| Time | Temp. | Humidity | Pressure | Rain* | Wind** | Luminosity | Snow |
|---|---|---|---|---|---|---|---|
| 1777408503 | 13.89° C | 69% | 1024.7 hPa | 0 mm | - | - | - |
| 1777408203 | 13.89° C | 71% | 1024.7 hPa | 0 mm | - | - | - |
| 1777407902 | 13.89° C | 71% | 1024.8 hPa | 0 mm | - | - | - |
| 1777407603 | 13.89° C | 72% | 1024.8 hPa | 0 mm | - | - | - |
| 1777407303 | 13.89° C | 69% | 1024.8 hPa | 0 mm | - | - | - |
| 1777407002 | 13.89° C | 72% | 1024.7 hPa | 0 mm | - | - | - |
| 1777406703 | 13.33° C | 73% | 1024.8 hPa | 0 mm | - | - | - |
| 1777406403 | 13.33° C | 71% | 1024.8 hPa | 0 mm | - | - | - |
| 1777406102 | 13.33° C | 71% | 1024.9 hPa | 0 mm | - | - | - |
| 1777405803 | 13.33° C | 70% | 1024.7 hPa | 0 mm | - | - | - |
| 1777405503 | 13.33° C | 71% | 1024.7 hPa | 0 mm | - | - | - |
| 1777405202 | 13.33° C | 72% | 1024.8 hPa | 0 mm | - | - | - |
| 1777404903 | 12.78° C | 71% | 1024.7 hPa | 0 mm | - | - | - |
| 1777404602 | 12.78° C | 72% | 1024.8 hPa | 0 mm | - | - | - |
| 1777404303 | 12.78° C | 71% | 1024.9 hPa | 0 mm | - | - | - |
| 1777404003 | 12.78° C | 72% | 1024.9 hPa | 0 mm | - | - | - |
| 1777403702 | 12.78° C | 72% | 1024.9 hPa | 0 mm | - | - | - |
| 1777403403 | 12.78° C | 73% | 1024.8 hPa | 0 mm | - | - | - |
| 1777403103 | 12.78° C | 72% | 1024.9 hPa | 0 mm | - | - | - |
| 1777402802 | 12.78° C | 71% | 1024.9 hPa | 0 mm | - | - | - |
| 1777402503 | 13.33° C | 69% | 1024.8 hPa | 0 mm | - | - | - |
| 1777402203 | 13.33° C | 67% | 1024.7 hPa | 0 mm | - | - | - |
| 1777401902 | 13.33° C | 69% | 1024.7 hPa | 0 mm | - | - | - |
| 1777401603 | 13.33° C | 69% | 1024.6 hPa | 0 mm | - | - | - |
| 1777401303 | 13.89° C | 69% | 1024.6 hPa | 0 mm | - | - | - |
* Rain latest hour (hover to see other rain measurements)
** Current wind speed in m/s (hover to see current wind gust speed)